Date String (YYYY-MM-DD hh:mm:ss) UTC,Instrument flags,Ambient pressure (hPa),Sample flow (lpm),Bypass flow (lpm),Sample temperature (°C),Ambient temperature (°C),ASC tube jacket temperature (°C),LED temperature (°C),Box temperature (°C),Sample RH (%),Span deviation,Mass concentration (μg/m³),Mass concentration (μg/m³),Mass concentration (μg/m³)
DateTimeUTC,F1_M11,P_M11,Q1_M11,Q2_M11,T1_M11,T2_M11,T3_M11,T4_M11,T5_M11,U1_M11,ZSPAN_M11,X0_M11,X2_M11,X1_M11
2022-08-30 12:00:00,,0833.2,5.00,0.00,30.1,28.9,00.0,38.9,31.9,23.2,0000.6,0016.40,0007.42,0006.25
2022-08-30 12:01:00,,0833.2,4.98,0.00,30.1,28.9,00.0,38.9,32.0,23.2,0000.7,0017.07,0007.45,0006.24
2022-08-30 12:02:00,,0833.2,5.01,0.00,30.1,28.9,00.0,38.9,31.9,23.2,0001.0,0017.54,0007.47,0006.24
2022-08-30 12:03:00,,0833.3,5.01,0.00,30.1,29.0,00.0,38.9,32.0,23.1,0000.6,0018.13,0007.51,0006.24
2022-08-30 12:04:00,,0833.2,4.99,0.00,30.1,29.0,00.0,38.9,32.0,23.1,0000.2,0018.79,0007.50,0006.23
2022-08-30 12:05:00,,0833.3,5.00,0.00,30.2,29.0,00.0,38.9,32.0,23.0,0001.0,0018.77,0007.45,0006.21
2022-08-30 12:06:00,,0833.3,5.00,0.00,30.2,29.0,00.0,38.9,32.0,23.0,0001.5,0018.51,0007.48,0006.21
2022-08-30 12:07:00,,0833.3,5.01,0.00,30.2,29.0,00.0,39.0,32.0,23.0,0000.7,0017.41,0007.47,0006.21
2022-08-30 12:08:00,,0833.3,5.00,0.00,30.2,29.0,00.0,39.0,32.0,23.1,0000.0,0016.75,0007.44,0006.20
2022-08-30 12:09:00,,0833.3,4.99,0.00,30.2,29.0,00.0,39.0,32.0,23.1,0000.0,0016.71,0007.47,0006.20
2022-08-30 12:10:00,,0833.3,5.01,0.00,30.2,29.1,00.0,39.0,32.0,23.1,0000.0,0017.29,0007.48,0006.21
2022-08-30 12:11:00,,0833.3,5.00,0.00,30.2,29.1,00.0,39.0,32.0,23.1,0000.0,0018.18,0007.45,0006.21
2022-08-30 12:12:00,,0833.3,4.99,0.00,30.2,29.1,00.0,39.0,32.0,23.1,0000.0,0018.43,0007.47,0006.20
2022-08-30 12:13:00,,0833.3,5.01,0.00,30.2,29.1,00.0,39.0,32.0,23.1,0000.0,0016.92,0007.44,0006.20
2022-08-30 12:14:00,,0833.3,5.01,0.00,30.2,29.1,00.0,39.0,32.1,23.0,0000.0,0015.96,0007.41,0006.19
2022-08-30 12:15:00,,0833.3,4.98,0.00,30.3,29.1,00.0,39.0,32.1,23.0,0000.0,0015.52,0007.43,0006.19
2022-08-30 12:16:00,,0833.3,5.01,0.00,30.3,29.1,00.0,39.0,32.1,22.9,0000.0,0015.69,0007.49,0006.20
2022-08-30 12:17:00,,0833.3,5.00,0.00,30.3,29.1,00.0,39.1,32.1,22.8,0000.0,0015.82,0007.47,0006.20
2022-08-30 12:18:00,,0833.4,5.00,0.00,30.3,29.1,00.0,39.1,32.1,22.7,0000.0,0016.97,0007.46,0006.20
2022-08-30 12:19:00,,0833.4,4.98,0.00,30.3,29.1,00.0,39.1,32.1,22.7,0000.0,0017.56,0007.47,0006.22
2022-08-30 12:20:00,,0833.4,5.00,0.00,30.3,29.1,00.0,39.1,32.1,22.6,0000.0,0018.15,0007.46,0006.22
2022-08-30 12:21:00,,0833.4,5.00,0.00,30.3,29.1,00.0,39.1,32.1,22.6,0000.0,0018.54,0007.44,0006.21
2022-08-30 12:22:00,,0833.4,5.00,0.00,30.3,29.1,00.0,39.1,32.1,22.6,0000.0,0017.75,0007.43,0006.20
2022-08-30 12:23:00,,0833.4,5.01,0.00,30.3,29.1,00.0,39.1,32.1,22.6,0000.0,0016.99,0007.41,0006.20
2022-08-30 12:24:00,,0833.4,5.01,0.00,30.3,29.1,00.0,39.1,32.1,22.5,0000.0,0017.15,0007.39,0006.19
2022-08-30 12:25:00,,0833.5,4.98,0.00,30.3,29.2,00.0,39.1,32.1,22.4,0000.0,0017.46,0007.37,0006.19
2022-08-30 12:26:00,,0833.5,5.00,0.00,30.3,29.1,00.0,39.1,32.1,22.3,0000.0,0017.68,0007.36,0006.19
2022-08-30 12:27:00,,0833.5,5.01,0.00,30.4,29.1,00.0,39.2,32.1,22.3,0000.0,0017.76,0007.31,0006.18
2022-08-30 12:28:00,,0833.6,5.00,0.00,30.3,29.1,00.0,39.2,32.1,22.4,0000.0,0017.87,0007.31,0006.17
2022-08-30 12:29:00,,0833.6,5.00,0.00,30.3,29.1,00.0,39.2,32.1,22.4,0000.0,0016.73,0007.30,0006.15
2022-08-30 12:30:00,,0833.6,4.99,0.00,30.4,29.1,00.0,39.2,32.1,22.4,0000.0,0016.67,0007.28,0006.10
2022-08-30 12:31:00,,0833.6,5.00,0.00,30.4,29.1,00.0,39.2,32.1,22.5,0000.0,0016.36,0007.26,0006.07
2022-08-30 12:32:00,,0833.6,5.00,0.00,30.4,29.1,00.0,39.2,32.1,22.5,0000.0,0015.65,0007.26,0006.05
2022-08-30 12:33:00,,0833.6,5.01,0.00,30.4,29.1,00.0,39.2,32.1,22.5,0000.0,0015.86,0007.19,0006.01
2022-08-30 12:34:00,,0833.6,5.01,0.00,30.4,29.2,00.0,39.2,32.1,22.5,0000.0,0016.15,0007.12,0005.98
2022-08-30 12:35:00,,0833.5,4.99,0.00,30.4,29.2,00.0,39.2,32.1,22.5,0000.0,0016.16,0007.11,0005.95
2022-08-30 12:36:00,,0833.5,5.00,0.00,30.4,29.2,00.0,39.2,32.1,22.6,0000.0,0015.65,0007.07,0005.92
2022-08-30 12:37:00,,0833.5,5.00,0.00,30.4,29.2,00.0,39.2,32.1,22.5,0000.0,0015.27,0007.03,0005.88
2022-08-30 12:38:00,,0833.5,5.00,0.00,30.4,29.1,00.0,39.2,32.1,22.5,0000.5,0016.06,0007.05,0005.84
2022-08-30 12:39:00,,0833.5,5.00,0.00,30.4,29.2,00.0,39.2,32.1,22.5,0000.5,0015.75,0007.03,0005.82
2022-08-30 12:40:00,,0833.5,4.99,0.00,30.4,29.1,00.0,39.2,32.1,22.4,0000.0,0016.01,0007.06,0005.81
2022-08-30 12:41:00,,0833.6,5.00,0.00,30.4,29.1,00.0,39.2,32.1,22.5,0002.1,0016.44,0007.03,0005.81
2022-08-30 12:42:00,,0833.5,5.00,0.00,30.4,29.1,00.0,39.2,32.1,22.5,0001.7,0016.76,0007.00,0005.81
2022-08-30 12:43:00,,0833.5,5.00,0.00,30.4,29.2,00.0,39.2,32.1,22.5,0001.1,0017.21,0007.00,0005.81
2022-08-30 12:44:00,,0833.6,5.01,0.00,30.4,29.1,00.0,39.2,32.1,22.5,0000.0,0016.71,0007.07,0005.82
2022-08-30 12:45:00,,0833.5,5.00,0.00,30.4,29.2,00.0,39.2,32.1,22.4,0000.0,0016.16,0007.05,0005.82
2022-08-30 12:46:00,,0833.5,5.00,0.00,30.4,29.1,00.0,39.2,32.1,22.4,-000.0,0015.76,0007.01,0005.81
2022-08-30 12:47:00,,0833.6,5.01,0.00,30.4,29.2,00.0,39.2,32.2,22.4,-000.1,0016.46,0007.05,0005.81
2022-08-30 12:48:00,,0833.6,4.98,0.00,30.4,29.2,00.0,39.2,32.2,22.3,0000.0,0016.51,0007.04,0005.82
2022-08-30 12:49:00,,0833.6,5.00,0.00,30.4,29.2,00.0,39.2,32.2,22.3,0000.0,0016.00,0007.02,0005.82
2022-08-30 12:50:00,,0833.6,5.01,0.00,30.4,29.2,00.0,39.2,32.2,22.3,0000.0,0016.28,0006.98,0005.82
2022-08-30 12:51:00,,0833.6,5.01,0.00,30.4,29.2,00.0,39.3,32.2,22.3,0000.0,0016.82,0006.95,0005.83
2022-08-30 12:52:00,,0833.6,4.99,0.00,30.4,29.2,00.0,39.3,32.2,22.2,0000.0,0017.28,0006.96,0005.82
2022-08-30 12:53:00,,0833.6,5.00,0.00,30.5,29.2,00.0,39.3,32.2,22.2,0000.0,0018.03,0007.01,0005.83
2022-08-30 12:54:00,,0833.6,5.00,0.00,30.5,29.3,00.0,39.3,32.2,22.2,0000.0,0018.53,0007.05,0005.83
2022-08-30 12:55:00,,0833.6,5.01,0.00,30.5,29.2,00.0,39.3,32.2,22.2,0000.0,0019.22,0007.04,0005.83
2022-08-30 12:56:00,,0833.6,4.98,0.00,30.5,29.2,00.0,39.3,32.2,22.1,0000.0,0019.34,0007.08,0005.84
2022-08-30 12:57:00,,0833.7,5.01,0.00,30.5,29.2,00.0,39.3,32.2,22.1,0000.0,0019.49,0007.14,0005.85
2022-08-30 12:58:00,,0833.6,5.00,0.00,30.5,29.3,00.0,39.3,32.2,22.1,0000.0,0019.04,0007.13,0005.85
2022-08-30 12:59:00,,0833.6,5.00,0.00,30.5,29.3,00.0,39.3,32.2,22.2,0000.0,0018.81,0007.14,0005.86
